1512846000.39,35505,3.81,71800.0,-16.87,-27.35,-27.67,0,*69
1512846001.69,35506,3.81,71806.8,-16.87,-27.45,-27.61,0,*6B
1512846002.96,35507,3.81,71802.0,-16.87,-27.45,-27.67,0,*6C
1512846004.23,35508,3.81,71804.0,-16.87,-27.45,-27.67,0,*63
1512846005.47,35509,3.81,71806.8,-16.89,-27.35,-27.67,0,*6B
1512846006.71,35510,3.81,71804.0,-16.89,-27.35,-27.77,0,*62
1512846007.95,35511,3.81,71808.0,-16.87,-27.51,-27.77,0,*6F
1512846009.22,35512,3.81,71806.0,-16.87,-27.45,-27.67,0,*68
1512846010.47,35513,3.81,71806.8,-16.87,-27.29,-27.67,0,*63
1512846011.74,35514,3.81,71808.0,-16.87,-27.45,-27.67,0,*6E
1512846012.98,35515,3.81,71808.8,-16.87,-27.51,-27.77,0,*6B
1512846014.24,35516,3.81,71808.5,-16.87,-27.45,-27.77,0,*6D
1512846015.52,35517,3.81,71810.3,-16.87,-27.45,-27.67,0,*6D
1512846016.79,35518,3.81,71810.5,-16.87,-27.45,-27.67,0,*62
1512846018.06,35519,3.81,71812.0,-16.87,-27.45,-27.67,0,*63
1512846019.3,35520,3.81,71808.5,-16.87,-27.51,-27.67,0,*6C
1512846020.6,35521,3.81,71806.0,-16.87,-27.45,-27.61,0,*6E
1512846021.86,35522,3.81,71810.3,-16.87,-27.35,-27.67,0,*6C
1512846023.11,35523,3.81,71810.0,-16.85,-27.45,-27.67,0,*68
1512846024.4,35524,3.81,71804.3,-16.87,-27.45,-27.61,0,*6B
1512846025.67,35525,3.81,71808.8,-16.87,-27.45,-27.67,0,*6C
1512846026.97,35526,3.81,71808.5,-16.87,-27.45,-27.61,0,*69
1512846028.24,35527,3.81,71810.3,-16.87,-27.45,-27.67,0,*6E
1512846029.53,35528,3.81,71806.3,-16.87,-27.35,-27.61,0,*60
1512846030.79,35529,3.81,71810.8,-16.85,-27.35,-27.61,0,*63
1512846032.08,35530,3.81,71808.5,-16.87,-27.35,-27.61,0,*69
1512846033.37,35531,3.81,71804.8,-16.87,-27.35,-27.61,0,*68
1512846034.64,35532,3.81,71810.3,-16.87,-27.35,-27.51,0,*68
1512846035.9,35533,3.81,71810.8,-16.87,-27.35,-27.51,0,*69
1512846037.19,35534,3.81,71808.3,-16.87,-27.45,-27.61,0,*6A
1512846038.44,35535,3.81,71806.5,-16.87,-27.51,-27.67,0,*68
1512846039.73,35536,3.81,71808.8,-16.87,-27.45,-27.61,0,*68
1512846041.03,35537,3.81,71808.5,-16.87,-27.45,-27.61,0,*69
1512846042.25,35538,3.81,71810.0,-16.85,-27.51,-27.67,0,*67
1512846043.51,35539,3.81,71810.0,-16.87,-27.51,-27.61,0,*62
1512846044.81,35540,3.81,71810.8,-16.87,-27.45,-27.61,0,*69
1512846046.08,35541,3.81,71812.8,-16.87,-27.45,-27.67,0,*6E
1512846047.37,35542,3.81,71810.5,-16.87,-27.45,-27.61,0,*6B
1512846048.67,35543,3.81,71808.0,-16.87,-27.45,-27.61,0,*6A
1512846049.94,35544,3.81,71810.8,-16.85,-27.45,-27.61,0,*6F
1512846051.18,35545,3.75,71808.5,-16.85,-27.45,-27.51,0,*6D
1512846052.43,35546,3.81,71810.8,-16.85,-27.35,-27.45,0,*6C
1512846053.68,35547,3.81,71808.0,-16.87,-27.29,-27.51,0,*67
1512846054.89,35548,3.81,71808.0,-16.85,-27.51,-27.51,0,*65
1512846056.17,35549,3.81,71810.5,-16.87,-27.45,-27.67,0,*66
1512846057.43,35550,3.81,71808.5,-16.85,-27.45,-27.61,0,*6A
1512846058.73,35551,3.81,71810.5,-16.87,-27.45,-27.61,0,*69
1512846060.0,35552,3.81,71810.8,-16.85,-27.45,-27.61,0,*68
1512846061.26,35553,3.81,71812.3,-16.85,-27.45,-27.61,0,*69
1512846062.53,35554,3.81,71810.0,-16.85,-27.45,-27.61,0,*6E
1512846063.8,35555,3.81,71812.3,-16.85,-27.45,-27.61,0,*6F
1512846065.05,35556,3.81,71810.0,-16.85,-27.61,-27.67,0,*6C
1512846066.32,35557,3.81,71810.8,-16.85,-27.45,-27.61,0,*6D
1512846067.56,35558,3.81,71810.8,-16.87,-27.51,-27.67,0,*63
1512846068.84,35559,3.81,71812.0,-16.85,-27.61,-27.61,0,*65
1512846070.08,35560,3.81,71810.3,-16.87,-27.51,-27.67,0,*68
1512846071.36,35561,3.81,71808.5,-16.87,-27.61,-27.67,0,*6A
1512846072.63,35562,3.81,71808.0,-16.87,-27.61,-27.77,0,*68
1512846073.93,35563,3.81,71804.5,-16.87,-27.61,-27.61,0,*6E
1512846075.18,35564,3.81,71810.0,-16.85,-27.45,-27.67,0,*6B
1512846076.42,35565,3.81,71808.8,-16.87,-27.51,-27.67,0,*6D
1512846077.64,35566,3.81,71810.3,-16.85,-27.51,-27.67,0,*6C
1512846078.88,35567,3.81,71808.5,-16.87,-27.51,-27.67,0,*6F
1512846080.13,35568,3.81,71810.3,-16.87,-27.51,-27.67,0,*60
1512846081.42,35569,3.81,71808.3,-16.87,-27.45,-27.61,0,*62
1512846082.72,35570,3.81,71808.0,-16.87,-27.61,-27.61,0,*6C
1512846083.99,35571,3.81,71808.5,-16.87,-27.51,-27.61,0,*6E
1512846085.26,35572,3.81,71808.8,-16.87,-27.45,-27.67,0,*6E
1512846086.51,35573,3.81,71810.5,-16.87,-27.51,-27.67,0,*6A
1512846087.78,35574,3.81,71808.3,-16.85,-27.61,-27.61,0,*6A
1512846089.08,35575,3.81,71808.5,-16.87,-27.61,-27.61,0,*69
1512846090.35,35576,3.81,71810.5,-16.85,-27.45,-27.61,0,*6E
1512846091.62,35577,3.81,71810.0,-16.87,-27.51,-27.61,0,*68
1512846092.91,35578,3.81,71808.3,-16.87,-27.45,-27.61,0,*62
1512846094.16,35579,3.81,71808.5,-16.85,-27.45,-27.67,0,*67
1512846095.42,35580,3.81,71812.3,-16.87,-27.51,-27.61,0,*60
1512846096.69,35581,3.81,71808.8,-16.87,-27.51,-27.61,0,*61
1512846097.91,35582,3.81,71810.8,-16.85,-27.51,-27.67,0,*66
1512846099.18,35583,3.81,71804.8,-16.87,-27.51,-27.61,0,*63
1512846100.47,35584,3.81,71808.8,-16.87,-27.45,-27.61,0,*61
1512846101.77,35585,3.81,71810.3,-16.87,-27.61,-27.61,0,*66
1512846103.02,35586,3.81,71806.3,-16.85,-27.51,-27.61,0,*64
1512846104.28,35587,3.81,71806.5,-16.87,-27.51,-27.61,0,*67
1512846105.52,35588,3.81,71808.0,-16.85,-27.51,-27.61,0,*6A
1512846106.79,35589,3.81,71810.5,-16.85,-27.45,-27.61,0,*6E
1512846108.03,35590,3.81,71810.3,-16.85,-27.51,-27.61,0,*63
1512846109.3,35591,3.81,71812.5,-16.87,-27.51,-27.61,0,*60
1512846110.57,35592,3.81,71812.5,-16.87,-27.51,-27.61,0,*63
1512846111.84,35593,3.81,71810.8,-16.87,-27.51,-27.61,0,*62
1512846113.13,35594,3.81,71814.0,-16.87,-27.45,-27.61,0,*60
1512846114.37,35595,3.81,71810.5,-16.85,-27.51,-27.61,0,*66
1512846115.64,35596,3.81,71814.5,-16.87,-27.51,-27.61,0,*67
1512846116.88,35597,3.81,71812.3,-16.85,-27.51,-27.61,0,*64
1512846118.12,35598,3.81,71812.5,-16.87,-27.51,-27.51,0,*6A
1512846119.36,35599,3.81,71810.8,-16.87,-27.51,-27.51,0,*6B
1512846120.6,35600,3.81,71814.5,-16.85,-27.45,-27.51,0,*6F
1512846121.87,35601,3.81,71812.0,-16.87,-27.45,-27.51,0,*6C
1512846123.17,35602,3.81,71812.5,-16.87,-27.45,-27.61,0,*6C
1512846124.46,35603,3.81,71812.3,-16.87,-27.45,-27.61,0,*6D
1512846125.73,35604,3.81,71814.0,-16.85,-27.45,-27.61,0,*68
1512846127.0,35605,3.81,71812.0,-16.87,-27.45,-27.51,0,*68
1512846128.26,35606,3.81,71812.3,-16.87,-27.45,-27.51,0,*6B
1512846129.5,35607,3.81,71812.3,-16.85,-27.45,-27.51,0,*68
1512846130.79,35608,3.75,71808.3,-16.87,-27.35,-27.61,0,*61
1512846132.06,35609,3.81,71810.5,-16.85,-27.45,-27.61,0,*65
1512846133.36,35610,3.81,71808.5,-16.87,-27.45,-27.61,0,*6F
1512846134.6,35611,3.81,71812.0,-16.85,-27.45,-27.51,0,*6F
1512846135.84,35612,3.81,71812.5,-16.85,-27.51,-27.61,0,*6A
1512846137.08,35613,3.81,71814.5,-16.85,-27.51,-27.61,0,*6B
1512846138.38,35614,3.81,71814.3,-16.87,-27.45,-27.61,0,*6B
1512846139.62,35615,3.75,71812.3,-16.87,-27.51,-27.67,0,*69
1512846140.86,35616,3.81,71814.5,-16.85,-27.51,-27.61,0,*6E
1512846142.13,35617,3.81,71814.0,-16.85,-27.45,-27.61,0,*6A
1512846143.42,35618,3.81,71818.8,-16.87,-27.45,-27.61,0,*67
1512846144.69,35619,3.75,71812.5,-16.85,-27.45,-27.61,0,*64
1512846145.99,35620,3.81,71818.3,-16.87,-27.45,-27.61,0,*6C
1512846147.25,35621,3.81,71816.5,-16.87,-27.45,-27.51,0,*6E
1512846148.54,35622,3.81,71816.5,-16.87,-27.45,-27.45,0,*68
1512846149.81,35623,3.75,71814.3,-16.87,-27.45,-27.51,0,*6C
1512846151.1,35624,3.81,71818.3,-16.87,-27.45,-27.61,0,*68
1512846152.35,35625,3.81,71814.3,-16.85,-27.45,-27.51,0,*68
1512846153.59,35626,3.81,71816.8,-16.87,-27.51,-27.51,0,*6C
1512846154.85,35627,3.75,71812.0,-16.85,-27.45,-27.61,0,*69
1512846156.15,35628,3.75,71812.5,-16.87,-27.45,-27.61,0,*64
1512846157.44,35629,3.75,71812.0,-16.87,-27.45,-27.61,0,*65
1512846158.71,35630,3.75,71814.0,-16.85,-27.45,-27.61,0,*6F
1512846160.01,35631,3.81,71816.3,-16.87,-27.45,-27.61,0,*6C
1512846161.27,35632,3.81,71816.0,-16.85,-27.45,-27.61,0,*6D
1512846162.54,35633,3.81,71816.3,-16.87,-27.51,-27.61,0,*6B
1512846163.81,35634,3.75,71814.5,-16.87,-27.45,-27.51,0,*6A
1512846165.09,35635,3.81,71818.3,-16.87,-27.35,-27.45,0,*69
1512846166.38,35636,3.81,71818.8,-16.87,-27.35,-27.61,0,*6C
1512846167.62,35637,3.81,71816.8,-16.85,-27.35,-27.51,0,*6C
1512846168.88,35638,3.75,71812.8,-16.87,-27.35,-27.51,0,*61
1512846170.14,35639,3.81,71816.8,-16.87,-27.35,-27.51,0,*60
1512846171.41,35640,3.81,71818.8,-16.87,-27.35,-27.51,0,*6E
1512846172.67,35641,3.81,71816.3,-16.87,-27.35,-27.51,0,*6F
1512846173.93,35642,3.75,71814.3,-16.87,-27.35,-27.51,0,*6C
1512846175.17,35643,3.81,71818.3,-16.85,-27.35,-27.51,0,*6F
1512846176.41,35644,3.81,71818.3,-16.85,-27.35,-27.51,0,*68
1512846177.7,35645,3.81,71814.5,-16.87,-27.45,-27.61,0,*6F
1512846178.94,35646,3.81,71814.0,-16.89,-27.35,-27.51,0,*66
1512846180.17,35647,3.81,71812.3,-16.85,-27.35,-27.51,0,*6B
1512846181.41,35648,3.81,71812.5,-16.85,-27.35,-27.51,0,*64
1512846182.66,35649,3.75,71814.5,-16.87,-27.29,-27.51,0,*6A
1512846183.94,35650,3.75,71812.3,-16.87,-27.35,-27.45,0,*6A
1512846185.23,35651,3.75,71816.8,-16.87,-27.35,-27.61,0,*6D
1512846186.49,35652,3.81,71818.8,-16.87,-27.35,-27.51,0,*6D
1512846187.79,35653,3.81,71818.3,-16.87,-27.45,-27.61,0,*68
1512846189.03,35654,3.81,71820.3,-16.85,-27.45,-27.51,0,*6E
1512846190.3,35655,3.75,71816.8,-16.87,-27.45,-27.51,0,*6D
1512846191.56,35656,3.81,71820.5,-16.87,-27.45,-27.51,0,*6E
1512846192.83,35657,3.81,71818.0,-16.87,-27.45,-27.51,0,*6F
1512846194.09,35658,3.81,71822.5,-16.87,-27.35,-27.51,0,*67
1512846195.38,35659,3.81,71824.5,-16.87,-27.35,-27.45,0,*63
1512846196.64,35660,3.81,71820.5,-16.87,-27.35,-27.51,0,*6C
1512846197.9,35661,3.81,71822.5,-16.87,-27.35,-27.51,0,*6D
1512846199.17,35662,3.81,71822.8,-16.87,-27.35,-27.51,0,*6E
1512846200.43,35663,3.81,71822.3,-16.87,-27.35,-27.51,0,*6F
1512846201.68,35664,3.81,71820.0,-16.87,-27.29,-27.51,0,*65
1512846202.92,35665,3.75,71822.3,-16.87,-27.29,-27.51,0,*64
1512846204.16,35666,3.81,71820.5,-16.89,-27.35,-27.51,0,*64
1512846205.43,35667,3.81,71824.5,-16.87,-27.29,-27.45,0,*63
1512846206.66,35668,3.75,71822.3,-16.85,-27.35,-27.51,0,*66
1512846207.95,35669,3.75,71818.5,-16.87,-27.35,-27.45,0,*60
1512846209.23,35670,3.81,71820.0,-16.87,-27.35,-27.45,0,*68
1512846210.49,35671,3.75,71822.5,-16.87,-27.35,-27.51,0,*6C
1512846211.76,35672,3.81,71826.0,-16.87,-27.29,-27.45,0,*67
1512846213.03,35673,3.81,71822.5,-16.87,-27.29,-27.45,0,*66
1512846214.29,35674,3.81,71822.3,-16.87,-27.13,-27.45,0,*68
1512846215.57,35675,3.81,71822.5,-16.87,-27.19,-27.45,0,*63
1512846216.79,35676,3.75,71818.8,-16.85,-27.29,-27.51,0,*64
1512846218.03,35677,3.75,71820.8,-16.87,-27.29,-27.51,0,*67
1512846219.28,35678,3.75,71820.8,-16.87,-27.29,-27.51,0,*68
1512846220.55,35679,3.75,71822.5,-16.87,-27.29,-27.45,0,*6C
1512846221.81,35680,3.75,71822.5,-16.87,-27.29,-27.45,0,*6A
1512846223.07,35681,3.81,71826.8,-16.87,-27.19,-27.51,0,*6D
1512846224.34,35682,3.75,71820.5,-16.87,-27.29,-27.45,0,*68
1512846225.58,35683,3.81,71826.5,-16.89,-27.13,-27.35,0,*69
1512846226.87,35684,3.81,71826.0,-16.87,-27.19,-27.35,0,*6A
1512846228.13,35685,3.75,71822.8,-16.87,-27.19,-27.51,0,*69
1512846229.36,35686,3.75,71822.5,-16.85,-27.19,-27.51,0,*68
1512846230.63,35687,3.75,71826.3,-16.87,-27.29,-27.45,0,*6D
1512846231.89,35688,3.81,71826.0,-16.89,-27.35,-27.45,0,*61
1512846233.14,35689,3.81,71828.5,-16.87,-27.29,-27.51,0,*66
1512846234.4,35690,3.75,71822.8,-16.87,-27.29,-27.45,0,*6B
1512846235.66,35691,3.75,71826.0,-16.87,-27.35,-27.51,0,*62
1512846236.93,35692,3.75,71824.5,-16.87,-27.19,-27.29,0,*60
1512846238.2,35693,3.75,71826.0,-16.87,-27.29,-27.45,0,*68
1512846239.48,35694,3.75,71824.8,-16.87,-27.19,-27.45,0,*6C
1512846240.72,35695,3.81,71830.0,-16.87,-27.29,-27.51,0,*6B
1512846241.97,35696,3.81,71828.8,-16.87,-27.29,-27.51,0,*68
1512846243.25,35697,3.81,71824.5,-16.87,-27.35,-27.45,0,*61
1512846244.53,35698,3.75,71824.3,-16.87,-27.19,-27.45,0,*60
1512846245.76,35699,3.81,71826.5,-16.89,-27.29,-27.51,0,*69
1512846247.03,35700,3.75,71826.8,-16.87,-27.19,-27.45,0,*60
1512846248.27,35701,3.81,71826.8,-16.89,-27.19,-27.51,0,*6A
1512846249.51,35702,3.75,71826.0,-16.89,-27.29,-27.45,0,*6F
1512846250.77,35703,3.75,71826.3,-16.89,-27.35,-27.45,0,*63
1512846252.06,35704,3.75,71826.5,-16.87,-27.35,-27.45,0,*6A
1512846253.33,35705,3.75,71826.3,-16.87,-27.29,-27.35,0,*61
1512846254.58,35706,3.75,71824.0,-16.87,-27.29,-27.51,0,*60
1512846255.86,35707,3.75,71826.8,-16.87,-27.35,-27.45,0,*69
1512846257.12,35708,3.75,71826.3,-16.89,-27.19,-27.45,0,*66
1512846258.38,35709,3.81,71828.5,-16.87,-27.35,-27.51,0,*62
1512846259.63,35710,3.81,71826.8,-16.87,-27.29,-27.51,0,*67
1512846260.87,35711,3.81,71830.0,-16.89,-27.29,-27.45,0,*6D
1512846262.13,35712,3.81,71826.5,-16.89,-27.19,-27.45,0,*6D
1512846263.37,35713,3.81,71826.3,-16.89,-27.29,-27.45,0,*6F
1512846264.61,35714,3.75,71824.5,-16.89,-27.19,-27.29,0,*61
1512846265.85,35715,3.75,71826.3,-16.89,-27.19,-27.29,0,*60
1512846267.11,35716,3.75,71828.0,-16.89,-27.19,-27.45,0,*69
1512846268.39,35717,3.75,71824.5,-16.87,-27.19,-27.45,0,*66
1512846269.63,35718,3.81,71826.8,-16.89,-27.29,-27.45,0,*64
1512846270.88,35719,3.75,71824.5,-16.89,-27.03,-27.35,0,*6A
1512846272.1,35720,3.75,71830.0,-16.89,-27.29,-27.51,0,*6A
1512846273.38,35721,3.81,71828.3,-16.87,-27.19,-27.35,0,*64
1512846274.66,35722,3.75,71824.3,-16.87,-27.29,-27.35,0,*64
1512846275.92,35723,3.75,71826.0,-16.87,-27.35,-27.51,0,*6A
1512846277.2,35724,3.75,71826.8,-16.87,-27.29,-27.35,0,*62
1512846278.46,35725,3.75,71826.0,-16.87,-27.29,-27.45,0,*64
1512846279.75,35726,3.75,71824.5,-16.87,-27.19,-27.35,0,*63
1512846281.03,35727,3.75,71824.5,-16.87,-27.19,-27.45,0,*65
1512846282.28,35728,3.75,71828.0,-16.87,-27.29,-27.51,0,*6C
1512846283.53,35729,3.75,71828.3,-16.89,-27.19,-27.45,0,*65
1512846284.77,35730,3.75,71828.8,-16.89,-27.35,-27.51,0,*66
1512846286.01,35731,3.75,71828.0,-16.89,-27.35,-27.51,0,*67
1512846287.24,35732,3.75,71828.8,-16.89,-27.29,-27.51,0,*69
1512846288.47,35733,3.75,71830.0,-16.89,-27.35,-27.51,0,*65
1512846289.73,35734,3.81,71832.3,-16.89,-27.35,-27.45,0,*67
1512846291.0,35735,3.81,71830.5,-16.87,-27.45,-27.51,0,*6A
1512846292.25,35736,3.81,71830.8,-16.87,-27.29,-27.51,0,*63
1512846293.51,35737,3.75,71830.5,-16.87,-27.35,-27.51,0,*6F
1512846294.75,35738,3.75,71830.3,-16.89,-27.35,-27.51,0,*6E
1512846295.97,35739,3.75,71830.8,-16.89,-27.29,-27.51,0,*62
1512846297.23,35740,3.75,71830.3,-16.89,-27.35,-27.45,0,*64
1512846298.47,35741,3.75,71830.8,-16.89,-27.35,-27.51,0,*60
1512846299.71,35742,3.81,71832.3,-16.89,-27.35,-27.51,0,*63
1512846300.95,35743,3.75,71832.3,-16.89,-27.35,-27.51,0,*62
1512846302.2,35744,3.75,71828.0,-16.87,-27.29,-27.51,0,*66
1512846303.43,35745,3.75,71828.5,-16.89,-27.35,-27.51,0,*64
1512846304.69,35746,3.75,71830.5,-16.89,-27.35,-27.45,0,*62
1512846305.99,35747,3.75,71828.0,-16.91,-27.35,-27.35,0,*6D
1512846307.25,35748,3.75,71828.5,-16.89,-27.35,-27.45,0,*6C
1512846308.51,35749,3.75,71832.5,-16.89,-27.35,-27.45,0,*6D
1512846309.75,35750,3.75,71826.8,-16.89,-27.29,-27.45,0,*68
1512846311.02,35751,3.75,71828.3,-16.91,-27.39,-27.51,0,*64
1512846312.3,35752,3.75,71828.8,-16.87,-27.29,-27.35,0,*63
1512846313.55,35753,3.75,71830.8,-16.89,-27.29,-27.35,0,*6C
1512846314.81,35754,3.75,71830.5,-16.89,-27.19,-27.35,0,*68
1512846316.09,35755,3.75,71828.8,-16.87,-27.35,-27.45,0,*6E
1512846317.37,35756,3.75,71830.8,-16.87,-27.29,-27.35,0,*67
1512846318.59,35757,3.75,71826.0,-16.89,-27.29,-27.51,0,*6A
1512846319.84,35758,3.75,71830.0,-16.89,-27.29,-27.35,0,*67
1512846321.08,35759,3.81,71832.0,-16.89,-27.19,-27.29,0,*68
1512846322.35,35760,3.75,71828.0,-16.89,-27.19,-27.35,0,*6F
1512846323.61,35761,3.81,71832.5,-16.89,-27.19,-27.35,0,*6E
1512846324.84,35762,3.81,71832.5,-16.89,-27.29,-27.29,0,*63
1512846326.09,35763,3.81,71830.3,-16.89,-27.29,-27.35,0,*6F
1512846327.38,35764,3.75,71828.3,-16.87,-27.35,-27.35,0,*6B
1512846328.65,35765,3.75,71826.3,-16.87,-27.29,-27.35,0,*67
1512846329.94,35766,3.75,71828.5,-16.87,-27.19,-27.35,0,*67
1512846331.21,35767,3.75,71830.8,-16.87,-27.13,-27.35,0,*6C
1512846332.5,35768,3.75,71830.0,-16.87,-27.19,-27.35,0,*69
1512846333.77,35769,3.75,71826.8,-16.87,-27.29,-27.19,0,*65
1512846335.04,35770,3.81,71832.3,-16.87,-27.29,-27.35,0,*63
1512846336.33,35771,3.75,71830.0,-16.87,-27.19,-27.35,0,*61
1512846337.61,35772,3.75,71826.8,-16.87,-27.19,-27.45,0,*65
1512846338.87,35773,3.75,71826.3,-16.87,-27.19,-27.29,0,*6E
1512846340.14,35774,3.75,71826.5,-16.87,-27.29,-27.45,0,*60
1512846341.41,35775,3.81,71832.3,-16.87,-27.29,-27.45,0,*61
1512846342.67,35776,3.81,71828.0,-16.85,-27.35,-27.35,0,*6A
1512846343.91,35777,3.81,71830.3,-16.89,-27.19,-27.51,0,*6B
1512846345.17,35778,3.75,71826.5,-16.89,-27.35,-27.45,0,*6F
1512846346.44,35779,3.75,71826.0,-16.87,-27.29,-27.35,0,*6A
1512846347.73,35780,3.81,71830.5,-16.87,-27.19,-27.35,0,*6F
1512846349.01,35781,3.81,71830.8,-16.87,-27.35,-27.45,0,*67
1512846350.3,35782,3.75,71828.8,-16.87,-27.35,-27.35,0,*63
1512846351.58,35783,3.75,71828.8,-16.87,-27.29,-27.35,0,*6F
1512846352.82,35784,3.75,71830.0,-16.89,-27.19,-27.29,0,*68
1512846354.11,35785,3.81,71828.5,-16.87,-27.19,-27.35,0,*6A
1512846355.39,35786,3.75,71820.8,-16.87,-27.19,-27.35,0,*69
1512846356.65,35787,3.75,71824.5,-16.87,-27.29,-27.29,0,*66
1512846357.91,35788,3.75,71826.3,-16.87,-27.19,-27.29,0,*6A
1512846359.2,35789,3.75,71826.5,-16.87,-27.19,-27.35,0,*66
1512846360.44,35790,3.75,71822.5,-16.85,-27.29,-27.35,0,*6F
1512846361.71,35791,3.81,71830.8,-16.85,-27.35,-27.35,0,*63
1512846362.99,35792,3.75,71824.3,-16.87,-27.19,-27.45,0,*6B
1512846364.25,35793,3.75,71824.8,-16.87,-27.29,-27.45,0,*69
1512846365.51,35794,3.75,71824.5,-16.87,-27.29,-27.29,0,*64
1512846366.75,35795,3.75,71826.8,-16.89,-27.19,-27.29,0,*68
1512846367.99,35796,3.75,71826.3,-16.87,-27.13,-27.29,0,*6F
1512846369.23,35797,3.81,71826.5,-16.87,-27.13,-27.13,0,*67
1512846370.47,35798,3.75,71826.3,-16.87,-27.03,-27.13,0,*69
1512846371.71,35799,3.75,71824.5,-16.89,-27.13,-27.19,0,*6D
1512846372.96,35800,3.75,71826.3,-16.89,-27.29,-27.45,0,*62
1512846374.21,35801,3.75,71824.5,-16.89,-27.29,-27.35,0,*64
1512846375.47,35802,3.75,71826.5,-16.87,-27.19,-27.29,0,*67
1512846376.72,35803,3.75,71826.5,-16.87,-27.29,-27.29,0,*65
1512846378.0,35804,3.75,71824.8,-16.87,-27.29,-27.35,0,*6F
1512846379.27,35805,3.75,71822.3,-16.87,-27.29,-27.35,0,*6E
1512846380.55,35806,3.75,71826.3,-16.87,-27.35,-27.45,0,*67
1512846381.84,35807,3.75,71828.0,-16.87,-27.35,-27.45,0,*66
1512846383.12,35808,3.75,71828.0,-16.87,-27.35,-27.45,0,*69
1512846384.4,35809,3.75,71826.8,-16.87,-27.35,-27.45,0,*68
1512846385.67,35810,3.81,71828.8,-16.89,-27.35,-27.35,0,*69
1512846386.95,35811,3.75,71826.3,-16.87,-27.29,-27.35,0,*6B
1512846388.17,35812,3.75,71826.5,-16.89,-27.29,-27.29,0,*6B
1512846389.41,35813,3.75,71828.0,-16.89,-27.19,-27.29,0,*69
1512846390.68,35814,3.75,71824.5,-16.89,-27.19,-27.19,0,*6D
1512846391.94,35815,3.75,71824.5,-16.87,-27.35,-27.13,0,*66
1512846393.2,35816,3.75,71826.0,-16.89,-27.35,-27.35,0,*6F
1512846394.42,35817,3.75,71828.3,-16.85,-27.29,-27.51,0,*6D
1512846395.67,35818,3.75,71826.0,-16.87,-27.29,-27.29,0,*6F
1512846396.94,35819,3.75,71824.5,-16.89,-27.35,-27.35,0,*60
1512846398.19,35820,3.75,71828.5,-16.89,-27.29,-27.19,0,*69
1512846399.46,35821,3.75,71824.8,-16.89,-27.35,-27.35,0,*6B
1512846400.68,35822,3.75,71826.8,-16.89,-27.29,-27.29,0,*68
1512846401.97,35823,3.75,71824.8,-16.87,-27.35,-27.45,0,*60
1512846403.22,35824,3.75,71828.0,-16.87,-27.29,-27.29,0,*60
1512846404.49,35825,3.75,71828.5,-16.87,-27.35,-27.29,0,*6C
1512846405.75,35826,3.81,71830.5,-16.89,-27.19,-27.35,0,*62
1512846406.99,35827,3.75,71826.5,-16.89,-27.19,-27.29,0,*6E
1512846408.29,35828,3.75,71826.0,-16.91,-27.23,-27.23,0,*6B
1512846409.53,35829,3.81,71830.3,-16.89,-27.19,-27.29,0,*60
1512846410.77,35830,3.75,71830.3,-16.89,-27.13,-27.19,0,*61
1512846412.01,35831,3.81,71830.3,-16.89,-27.13,-27.19,0,*60
1512846413.24,35832,3.75,71824.5,-16.89,-27.29,-27.29,0,*69
1512846414.47,35833,3.75,71826.0,-16.89,-27.19,-27.13,0,*62
1512846415.7,35834,3.75,71826.3,-16.89,-27.29,-27.29,0,*6F
1512846416.97,35835,3.75,71826.0,-16.89,-27.35,-27.35,0,*6E
1512846418.22,35836,3.75,71826.3,-16.87,-27.29,-27.29,0,*63
1512846419.48,35837,3.75,71828.8,-16.89,-27.19,-27.19,0,*6C
1512846420.69,35838,3.75,71830.0,-16.89,-27.13,-27.13,0,*63
1512846421.96,35839,3.75,71828.8,-16.87,-27.13,-27.19,0,*66
1512846423.19,35840,3.75,71824.5,-16.85,-27.19,-27.13,0,*6A
1512846424.45,35841,3.75,71824.8,-16.87,-27.13,-27.19,0,*69
1512846425.74,35842,3.75,71822.8,-16.87,-27.19,-27.19,0,*60
1512846427.01,35843,3.75,71826.3,-16.87,-27.29,-27.35,0,*6C
1512846428.26,35844,3.75,71826.5,-16.87,-27.29,-27.29,0,*66
1512846429.49,35845,3.75,71826.8,-16.89,-27.29,-27.29,0,*69
1512846430.73,35846,3.75,71826.0,-16.89,-27.19,-27.29,0,*69
1512846432.0,35847,3.75,71830.3,-16.87,-27.19,-27.29,0,*66
1512846433.24,35848,3.75,71828.8,-16.89,-27.29,-27.19,0,*67
1512846434.47,35849,3.75,71828.0,-16.89,-27.29,-27.29,0,*65
1512846435.72,35850,3.75,71826.0,-16.89,-27.29,-27.19,0,*6E
1512846436.95,35851,3.75,71824.0,-16.89,-27.29,-27.29,0,*6C
1512846438.19,35852,3.75,71824.0,-16.89,-27.19,-27.29,0,*6C
1512846439.44,35853,3.75,71824.0,-16.89,-27.23,-27.29,0,*64
1512846440.67,35854,3.75,71826.3,-16.89,-27.19,-27.13,0,*63
1512846441.88,35855,3.75,71830.0,-16.89,-27.13,-27.13,0,*68
1512846443.15,35856,3.75,71826.0,-16.89,-27.19,-27.19,0,*6B
1512846444.37,35857,3.75,71824.0,-16.89,-27.29,-27.29,0,*6A
1512846445.66,35858,3.75,71826.5,-16.87,-27.19,-27.19,0,*6B
1512846446.92,35859,3.75,71824.0,-16.87,-27.19,-27.13,0,*60
1512846448.18,35860,3.75,71824.5,-16.87,-27.19,-27.29,0,*63
1512846449.47,35861,3.75,71826.0,-16.87,-27.35,-27.35,0,*61
1512846450.74,35862,3.75,71830.0,-16.87,-27.29,-27.35,0,*6F
1512846452.0,35863,3.75,71830.3,-16.85,-27.19,-27.19,0,*61
1512846453.29,35864,3.75,71828.8,-16.87,-27.19,-27.19,0,*64
1512846454.54,35865,3.75,71826.0,-16.87,-27.29,-27.29,0,*65
1512846455.8,35866,3.75,71824.0,-16.87,-27.19,-27.29,0,*65
1512846457.03,35867,3.75,71826.0,-16.89,-27.29,-27.29,0,*69
1512846458.28,35868,3.75,71826.3,-16.89,-27.29,-27.19,0,*65
1512846459.54,35869,3.75,71826.5,-16.89,-27.19,-27.19,0,*67
1512846460.8,35870,3.75,71828.8,-16.89,-27.19,-27.19,0,*6F
1512846462.09,35871,3.75,71828.0,-16.91,-27.35,-27.35,0,*67
1512846463.34,35872,3.75,71828.3,-16.89,-27.29,-27.35,0,*60
1512846464.56,35873,3.75,71828.8,-16.89,-27.13,-27.13,0,*6C
1512846465.79,35874,3.75,71826.5,-16.89,-27.19,-27.13,0,*61
1512846467.05,35875,3.75,71830.5,-16.89,-27.19,-27.19,0,*6A
1512846468.29,35876,3.75,71830.0,-16.89,-27.19,-27.13,0,*63
1512846469.5,35877,3.75,71830.8,-16.89,-27.13,-27.13,0,*68
1512846470.72,35878,3.75,71830.8,-16.89,-27.13,-27.13,0,*67
1512846471.95,35879,3.75,71828.8,-16.89,-27.19,-27.13,0,*6C
1512846473.2,35880,3.75,71828.0,-16.89,-26.97,-27.03,0,*6C
1512846474.48,35881,3.75,71828.0,-16.89,-26.93,-26.97,0,*65
1512846475.72,35882,3.75,71830.0,-16.91,-27.03,-27.07,0,*6F
1512846476.97,35883,3.75,71826.8,-16.89,-27.03,-26.97,0,*6F
1512846478.19,35884,3.75,71830.0,-16.89,-27.03,-27.03,0,*64
1512846479.41,35885,3.75,71828.5,-16.89,-27.03,-27.13,0,*64
1512846480.65,35886,3.75,71828.8,-16.89,-27.13,-27.19,0,*6C
1512846481.88,35887,3.75,71828.0,-16.89,-27.19,-27.13,0,*6D
1512846483.1,35888,3.75,71828.8,-16.89,-27.03,-27.03,0,*68
1512846484.32,35889,3.75,71828.8,-16.89,-27.13,-27.13,0,*69
1512846485.58,35890,3.75,71830.8,-16.89,-27.19,-27.19,0,*61
1512846486.81,35891,3.75,71828.8,-16.89,-27.19,-27.13,0,*6A
1512846488.03,35892,3.75,71826.5,-16.89,-27.13,-27.13,0,*63
1512846489.27,35893,3.75,71828.0,-16.89,-27.03,-27.19,0,*69
1512846490.56,35894,3.75,71832.8,-16.91,-27.19,-27.19,0,*6C
1512846491.85,35895,3.75,71828.8,-16.91,-27.23,-27.19,0,*64
1512846493.14,35896,3.75,71828.3,-16.91,-27.23,-27.19,0,*67
1512846494.36,35897,3.75,71828.3,-16.89,-27.13,-27.13,0,*66
1512846495.58,35898,3.75,71830.3,-16.89,-27.13,-27.03,0,*68
1512846496.82,35899,3.75,71830.0,-16.89,-27.13,-27.19,0,*62
1512846498.03,35900,3.75,71830.5,-16.89,-27.13,-27.13,0,*69
1512846499.27,35901,3.75,71828.8,-16.89,-27.13,-27.23,0,*6B
1512846500.53,35902,3.75,71830.8,-16.89,-27.19,-27.19,0,*6B
1512846501.78,35903,3.75,71828.8,-16.89,-27.03,-27.19,0,*61
1512846503.03,35904,3.75,71830.0,-16.89,-26.97,-27.03,0,*61